Atqasuk Edward Burnell Sr Mem, AK

11:27 AM AKST on December 15, 2019 (GMT -0900)
Atqasuk Edward Burnell Sr Mem

Weather History for PATQ - September, 2019

Change the Weather History Date:

Sunday, September 8, 2019

  Actual Average (WUND) Record (WUND)
Temperature  
Mean Temperature 52 °F -  
Max Temperature 57 °F - - (-1)
Min Temperature 48 °F - - (-1)
Degree Days  
Heating Degree Days 12    
Growing Degree Days 2 (Base 50)    
Moisture  
Dew Point 47 °F    
Average Humidity 86    
Maximum Humidity 100    
Minimum Humidity 65    
Precipitation  
Precipitation 0.07 in - - ()
Sea Level Pressure  
Sea Level Pressure 29.74 in    
Wind  
Wind Speed 9 mph (SSE)    
Max Wind Speed 23 mph    
Max Gust Speed 29 mph    
Visibility 9 miles    
Events Rain    
Averages and records for this station are not official NWS values.
T = Trace of Precipitation, MM = Missing Value Source: NWS Daily Summary

Daily Weather History Graph

Daily Weather History Graph

Search for Another Location

Airport or City:

Astronomy

Sep. 08, 2019 Rise Set
Actual Time 7:12 AM AKDT 9:39 PM AKDT
Civil Twilight 6:01 AM AKDT 10:49 PM AKDT
Nautical Twilight 4:07 AM AKDT 12:38 AM AKDT
Astronomical Twilight Sun does not rise Sun does not rise
Moon No Moon Rise No Moon Set
Length of Visible Light 16h 47m
Length of Day
14h 27m
Waxing Gibbous, 76% of the Moon is Illuminated
Sep 8
Waxing Gibbous
Sep 13
Full
Sep 21
Last Quarter
Sep 28
New
Oct 5
First Quarter

Hourly Weather History & Observations

Time (AKDT) Temp. Dew Point Humidity Pressure Visibility Wind Dir Wind Speed Gust Speed Precip Events Conditions
12:56 AM 48.9 °F 48.0 °F 97% 29.78 in 10.0 mi East 6.9 mph - N/A   Overcast
1:56 AM 48.9 °F 48.0 °F 97% 29.79 in 10.0 mi East 4.6 mph - N/A   Overcast
2:56 AM 48.0 °F 46.9 °F 96% 29.78 in 10.0 mi ENE 5.8 mph - 0.00 in Rain Light Rain
3:56 AM 48.0 °F 46.9 °F 96% 29.77 in 10.0 mi NE 6.9 mph - 0.00 in Rain Light Rain
5:56 AM 48.0 °F 46.9 °F 96% 29.76 in 10.0 mi SE 5.8 mph - 0.01 in Rain Light Rain
7:56 AM 48.0 °F 48.0 °F 100% 29.75 in 6.0 mi South 4.6 mph - 0.04 in Rain Light Rain
8:12 AM 48.2 °F 48.2 °F 100% 29.73 in 7.0 mi SE 4.6 mph - 0.00 in Rain Light Rain
8:39 AM 48.2 °F 46.4 °F 93% 29.72 in 6.0 mi SE 4.6 mph - 0.01 in Rain Light Rain
8:56 AM 48.0 °F 48.0 °F 100% 29.74 in 5.0 mi SE 4.6 mph - 0.01 in Rain Light Rain
9:38 AM 48.2 °F 48.2 °F 100% 29.71 in 5.0 mi SE 6.9 mph - 0.00 in Rain Light Rain
9:56 AM 48.9 °F 48.0 °F 97% 29.73 in 10.0 mi SE 9.2 mph - 0.00 in Rain Light Rain
10:56 AM 52.0 °F 50.0 °F 93% 29.73 in 10.0 mi SE 12.7 mph - 0.01 in   Mostly Cloudy
11:56 AM 53.1 °F 48.9 °F 86% 29.72 in 10.0 mi SE 15.0 mph - N/A   Scattered Clouds
12:56 PM 55.0 °F 48.9 °F 80% 29.71 in 10.0 mi SSE 15.0 mph - N/A   Clear
2:56 PM 57.0 °F 48.0 °F 72% 29.71 in 10.0 mi SSW 12.7 mph - N/A   Scattered Clouds
4:56 PM 57.9 °F 46.9 °F 67% 29.71 in 10.0 mi South 23.0 mph - N/A   Overcast
5:56 PM 57.9 °F 46.0 °F 65% 29.71 in 10.0 mi South 19.6 mph 23.0 mph N/A   Overcast
6:56 PM 57.0 °F 46.0 °F 67% 29.72 in 10.0 mi SSW 17.3 mph 28.8 mph N/A   Overcast
7:56 PM 55.9 °F 46.0 °F 69% 29.72 in 10.0 mi SSW 17.3 mph - N/A   Overcast
8:56 PM 55.0 °F 46.0 °F 72% 29.73 in 10.0 mi SSW 16.1 mph - N/A   Overcast
9:56 PM 53.1 °F 46.9 °F 80% 29.74 in 10.0 mi South 12.7 mph - N/A   Overcast
10:56 PM 51.1 °F 45.0 °F 80% 29.76 in 10.0 mi South 15.0 mph - N/A   Overcast
11:56 PM 50.0 °F 46.0 °F 86% 29.76 in 10.0 mi SSW 18.4 mph - N/A   Clear